Flag for U.S.A. Weather past 2 weeks in Torrance, California, U.S.A.

Now
54 °F

Fog.


Feels Like: 54 °F
Forecast: 56 / 71 °F
Wind: No wind

Location: Hawthorne Municipal Airport

Current Time: Dec 22, 2014 at 6:20:05 AM

Latest Report: Dec 22, 2014 at 5:53 AM


Visibility: 5 mi

Pressure: 30.04 "Hg

Humidity: 86%

Dew point: 50 °F

Location of TorranceLocation

Historic Weather in Torrance — Graph

°F

Torrance temperature yesterday

Maximum temperature yesterday: 66 °F (at 12:53 PM)
Minimum temperature yesterday: 54 °F (at 6:53 AM)
Average temperature yesterday: 60 °F

Past Weeks' High & Low Weather Summary

 TemperatureHumidityPressure
High77 °F (Dec 8, 1:53 PM)100% (Dec 10, 7:53 AM)30.24 "Hg (Dec 10, 7:53 AM)
Low50 °F (Dec 13, 6:53 AM)32% (Dec 8, 11:53 AM)29.81 "Hg (Dec 12, 2:53 AM)
Average60 °F71%30.06 "Hg
* Reported Dec 7 4:53 AM — Dec 22 4:53 AM, Torrance, Weather by CustomWeather, © 2014

Note: Actual official high and low records may vary slightly from our data, if they occured in-between our weather recording intervals... More about our weather records

Advertising

Torrance weather history for previous 24 hours

 ConditionsComfort  
Time TempWeatherWind HumidityBarometerVisibility
4:53 AM
Dec 22
53 °FFog.No wind93%30.03 "Hg3 mi
3:53 AM53 °FFog.3 mph93%30.04 "Hg3 mi
2:53 AM54 °FFog.No wind93%30.04 "Hg4 mi
1:53 AM55 °FFog.No wind90%30.03 "Hg3 mi
12:53 AM56 °FFog.No wind90%30.03 "Hg3 mi
11:53 PM
Dec 21
57 °FFog.No wind90%30.06 "Hg4 mi
10:53 PM59 °FFog.No wind87%30.06 "Hg5 mi
9:53 PM60 °FClear.No wind83%30.06 "Hg5 mi
8:53 PM61 °FClear.No wind81%30.06 "Hg6 mi
7:53 PM62 °FClear.3 mph80%30.06 "Hg6 mi
6:53 PM62 °FClear.3 mph80%30.04 "Hg6 mi
5:53 PM62 °FClear.No wind80%30.04 "Hg6 mi
4:53 PM63 °FClear.3 mph78%30.05 "Hg6 mi
3:53 PM64 °FSunny.3 mph73%30.05 "Hg8 mi
2:53 PM66 °FSunny.6 mph68%30.04 "Hg9 mi
1:53 PM66 °FSunny.6 mph65%30.05 "Hg10 mi
12:53 PM66 °FSunny.6 mph65%30.07 "Hg9 mi
11:53 AM64 °FSunny.No wind68%30.11 "Hg7 mi
10:53 AM63 °FSunny.No wind68%30.14 "Hg5 mi
9:53 AM60 °FSunny.No wind67%30.16 "Hg5 mi
8:53 AM57 °FHaze.No wind72%30.16 "Hg6 mi
7:53 AM56 °FSunny.No wind72%30.14 "Hg7 mi
6:53 AM54 °FClear.No wind77%30.13 "Hg6 mi
Weather by CustomWeather, © 2014

See weather overviewHow to use our weather pages